Latest Weather Observations for Nuriootpa

IDS60801

Issued at 3:31 pm CDT Thursday 23 January 2020 (issued every 10 minutes, with the page automatically refreshed every 10 minutes)

About weather observations | Map of weather stations | Latest weather observations for SA | Other Formats
Station Details ID: 023373 Name: NURIOOTPA PIRSA Lat: -34.48 Lon: 139.01 Height: 275.0 m
Data from the previous 72 hours. | See also: Recent months at Nuriootpa
Date/Time
CDT
Temp
°C
App
Temp
°C
Dew
Point
°C
Rel
Hum
%
Delta-T
°C
Wind Press
QNH
hPa
Press
MSL
hPa
Rain since
9am
mm
Dir  Spd
km/h
Gust
km/h
Spd
kts
Gust
kts
23/03:30pm 18.4 12.6 6.3 45 6.1 WSW 26 37 14 20 1006.5 1005.3 0.4
23/03:19pm 18.3 11.6 5.8 44 6.2 WSW 30 48 16 26 1006.3 1005.1 0.4
23/03:00pm 17.5 11.4 6.7 49 5.4 SW 28 43 15 23 1006.3 1005.1 0.4
23/02:30pm 18.2 11.4 7.0 48 5.7 SW 32 44 17 24 1006.2 1005.0 0.4
23/02:06pm 17.9 11.8 6.4 47 5.8 WSW 28 46 15 25 1005.8 1004.6 0.4
23/02:00pm 18.6 12.2 7.1 47 5.9 WSW 30 46 16 25 1005.8 1004.6 0.4
23/01:50pm 17.8 11.6 6.3 47 5.7 WSW 28 46 15 25 1005.7 1004.5 0.4
23/01:30pm 17.2 10.0 6.1 48 5.5 W 33 46 18 25 1005.7 1004.5 0.4
23/01:01pm 16.7 10.4 5.6 48 5.4 WSW 28 56 15 30 1005.2 1004.0 0.4
23/01:00pm 17.0 11.2 6.2 49 5.4 WSW 26 41 14 22 1005.2 1004.0 0.4
23/12:30pm 16.3 9.9 7.0 54 4.7 WSW 30 50 16 27 1005.0 1003.8 0.4
23/12:11pm 14.6 8.9 8.5 67 3.1 W 28 46 15 25 1004.9 1003.7 0.4
23/12:00pm 14.9 11.0 10.7 76 2.3 W 22 35 12 19 1004.6 1003.4 0.4
23/11:30am 13.5 6.7 10.5 82 1.6 W 37 57 20 31 1004.3 1003.0 0.4
23/11:17am 16.2 9.8 8.7 61 3.9 W 32 50 17 27 1003.4 1002.1 0.2
23/11:00am 15.9 10.6 10.0 68 3.1 WSW 28 41 15 22 1003.2 1001.9 0.2
23/10:30am 13.9 7.9 10.1 78 2.0 WSW 32 54 17 29 1003.2 1001.9 0.2
23/10:00am 14.7 8.1 10.1 74 2.4 WSW 35 54 19 29 1002.6 1001.4 0.0
23/09:46am 15.0 9.8 11.6 80 1.9 WSW 30 48 16 26 1002.2 1001.0 0.0
23/09:30am 14.1 8.5 11.6 85 1.4 WSW 32 44 17 24 1002.0 1000.8 0.0
23/09:09am 14.2 8.9 12.4 89 1.0 W 32 56 17 30 1001.5 1000.3 0.0
23/09:00am 13.9 8.7 12.8 93 0.6 W 32 48 17 26 1001.4 1000.2 0.0
23/08:30am 13.3 6.5 11.9 91 0.8 WSW 39 69 21 37 1000.9 999.6 0.0
23/08:00am 15.7 8.4 11.5 76 2.3 W 41 65 22 35 999.8 998.5 0.0
23/07:36am 15.4 9.2 11.4 77 2.2 W 35 59 19 32 999.4 998.1 0.0
23/07:30am 15.3 8.3 11.3 77 2.2 W 39 54 21 29 999.3 998.0 0.0
23/07:03am 15.2 9.4 11.6 79 2.0 W 33 52 18 28 998.8 997.6 0.0
23/07:00am 15.2 9.4 11.6 79 2.0 W 33 50 18 27 998.8 997.6 0.0
23/06:30am 15.0 7.7 11.6 80 1.9 W 41 61 22 33 998.6 997.4 0.0
23/06:00am 15.5 8.6 11.5 77 2.2 W 39 57 21 31 998.8 997.6 0.0
23/05:46am 15.5 9.3 11.5 77 2.2 WNW 35 54 19 29 998.9 997.7 0.0
23/05:30am 14.9 10.2 11.9 82 1.7 WNW 28 37 15 20 999.2 997.9 0.0
23/05:00am 14.5 10.6 12.0 85 1.4 WNW 24 33 13 18 999.1 997.8 0.0
23/04:30am 14.6 10.1 11.4 81 1.7 W 26 43 14 23 999.4 998.1 0.0
23/04:00am 14.7 10.6 11.5 81 1.7 W 24 33 13 18 999.5 998.2 0.0
23/03:30am 14.9 9.3 11.5 80 1.9 W 32 46 17 25 999.6 998.3 0.0
23/03:21am 15.0 9.4 11.4 79 2.0 W 32 50 17 27 999.7 998.4 0.0
23/03:00am 16.2 10.3 10.3 68 3.2 W 32 46 17 25 999.5 998.2 0.0
23/02:30am 15.9 11.0 9.8 67 3.2 W 26 39 14 21 999.7 998.4 0.0
23/02:00am 15.6 10.9 10.6 72 2.7 W 26 39 14 21 1000.2 998.9 0.0
23/01:30am 15.6 10.6 10.8 73 2.6 W 28 39 15 21 1000.5 999.2 0.0
23/01:00am 15.5 10.8 11.9 79 2.0 W 28 44 15 24 1000.9 999.6 0.0
23/12:30am 16.6 12.3 9.5 63 3.8 WNW 22 30 12 16 1001.1 999.8 0.0
23/12:00am 16.7 13.0 9.6 63 3.8 WNW 19 28 10 15 1001.4 1000.2 0.0
 
Date/Time
CDT
Temp
°C
App
Temp
°C
Dew
Point
°C
Rel
Hum
%
Delta-T
°C
Wind Press
QNH
hPa
Press
MSL
hPa
Rain since
9am
mm
Dir  Spd
km/h
Gust
km/h
Spd
kts
Gust
kts
22/11:30pm 16.6 14.0 9.5 63 3.8 WNW 13 20 7 11 1001.5 1000.3 0.0
22/11:00pm 16.7 14.4 8.9 60 4.1 WNW 11 15 6 8 1001.6 1000.4 0.0
22/10:30pm 16.8 13.7 8.8 59 4.2 W 15 20 8 11 1001.9 1000.7 0.0
22/10:00pm 17.0 13.4 8.4 57 4.5 W 17 22 9 12 1001.9 1000.7 0.0
22/09:30pm 17.2 13.2 8.1 55 4.7 W 19 24 10 13 1001.7 1000.5 0.0
22/09:00pm 17.5 13.2 7.8 53 5.0 WSW 20 28 11 15 1001.3 1000.1 0.0
22/08:30pm 17.8 13.8 8.1 53 5.1 WSW 19 33 10 18 1000.8 999.5 0.0
22/08:00pm 18.1 13.0 7.8 51 5.3 WSW 24 39 13 21 1000.4 999.1 0.0
22/07:30pm 18.3 14.2 8.8 54 5.0 WSW 20 35 11 19 999.8 998.5 0.0
22/07:00pm 18.6 12.9 9.7 56 4.8 WSW 30 43 16 23 999.7 998.4 0.0
22/06:30pm 18.3 12.8 10.4 60 4.3 WSW 30 39 16 21 999.3 998.0 0.0
22/06:00pm 18.9 14.2 10.7 59 4.5 WSW 26 35 14 19 999.2 997.9 0.0
22/05:30pm 19.4 15.1 10.7 57 4.8 WSW 24 37 13 20 999.8 998.5 0.0
22/05:00pm 20.7 15.9 10.2 51 5.8 WSW 26 43 14 23 1000.1 998.8 0.0
22/04:30pm 21.1 15.8 10.0 49 6.1 WSW 28 41 15 22 1000.5 999.2 0.0
22/04:00pm 21.7 16.4 9.9 47 6.5 WSW 28 39 15 21 1000.5 999.2 0.0
22/03:30pm 24.0 17.9 8.4 37 8.5 WSW 30 46 16 25 1000.7 999.4 0.0
22/03:00pm 23.9 17.9 10.2 42 7.7 SW 32 44 17 24 1000.8 999.5 0.0
22/02:30pm 23.4 18.5 12.4 50 6.4 WSW 30 48 16 26 1000.9 999.6 0.0
22/02:12pm 23.7 18.5 12.7 50 6.4 WSW 32 50 17 27 1000.7 999.4 0.0
22/02:00pm 24.7 19.9 13.0 48 6.9 WSW 30 44 16 24 1000.9 999.6 0.0
22/01:30pm 24.4 19.0 12.7 48 6.9 WSW 33 44 18 24 1001.0 999.7 0.0
22/01:20pm 24.4 19.3 13.0 49 6.7 W 32 50 17 27 1001.3 1000.1 0.0
22/01:00pm 24.8 20.6 13.4 49 6.7 WSW 28 43 15 23 1001.6 1000.4 0.0
22/12:30pm 24.0 18.7 11.3 45 7.3 WSW 30 50 16 27 1001.4 1000.2 0.0
22/12:15pm 24.7 19.2 9.0 37 8.6 W 28 48 15 26 1001.5 1000.3 0.0
22/12:00pm 25.7 18.7 6.8 30 10.1 W 33 48 18 26 1001.1 999.8 0.0
22/11:30am 25.6 20.5 10.6 39 8.5 WSW 28 43 15 23 1001.0 999.7 0.0
22/11:28am 25.6 20.7 11.4 41 8.1 WSW 28 46 15 25 1000.9 999.6 0.0
22/11:00am 25.0 19.6 12.2 44 7.4 WSW 32 46 17 25 1000.4 999.1 0.0
22/10:55am 25.8 20.4 12.3 43 7.9 W 32 50 17 27 1000.3 999.0 0.0
22/10:43am 27.2 20.0 7.6 29 10.6 WNW 35 50 19 27 1000.0 998.7 0.0
22/10:30am 28.6 20.4 4.8 22 12.5 NW 37 59 20 32 1000.0 998.7 0.0
22/10:00am 28.9 21.8 3.7 20 12.9 NNW 30 50 16 27 1000.3 999.0 0.0
22/09:36am 28.4 21.6 3.3 20 12.7 NNW 28 48 15 26 1000.5 999.2 0.0
22/09:30am 27.9 22.3 3.6 21 12.4 NNW 22 43 12 23 1000.7 999.4 0.0
22/09:00am 26.4 21.3 4.2 24 11.3 NNW 20 37 11 20 1001.5 1000.3 0.0
22/08:30am 25.4 21.0 4.5 26 10.7 NNW 17 28 9 15 1001.5 1000.3 0.0
22/08:00am 24.9 19.9 4.6 27 10.3 NNW 20 30 11 16 1001.4 1000.2 0.0
22/07:30am 24.6 19.6 4.4 27 10.2 NNW 20 30 11 16 1001.3 1000.1 0.0
22/07:00am 24.6 19.4 3.8 26 10.4 NNW 20 35 11 19 1001.3 1000.1 0.0
22/06:30am 23.8 19.9 3.2 26 10.2 NW 13 19 7 10 1001.2 1000.0 0.0
22/06:00am 24.5 19.3 2.6 24 10.7 NNW 19 32 10 17 1000.9 999.6 0.0
22/05:30am 24.1 19.2 2.3 24 10.6 N 17 24 9 13 1000.8 999.5 0.0
22/05:00am 22.9 18.7 3.9 29 9.4 N 15 24 8 13 1001.0 999.7 0.0
22/04:30am 22.4 18.6 4.0 30 9.1 N 13 17 7 9 1001.3 1000.1 0.0
22/04:00am 22.7 18.6 4.2 30 9.2 NNE 15 20 8 11 1001.5 1000.3 0.0
22/03:30am 23.1 19.0 4.1 29 9.5 N 15 22 8 12 1001.7 1000.5 0.0
22/03:00am 23.6 19.4 4.0 28 9.8 N 15 22 8 12 1002.1 1000.9 0.0
22/02:30am 23.8 18.9 4.2 28 9.8 N 19 32 10 17 1002.4 1001.2 0.0
22/02:00am 24.0 19.9 4.4 28 9.8 N 15 24 8 13 1003.0 1001.7 0.0
22/01:30am 22.2 19.0 5.2 33 8.6 N 11 17 6 9 1003.3 1002.0 0.0
22/01:00am 20.0 17.5 6.4 41 6.9 NNE 9 11 5 6 1004.0 1002.7 0.0
22/12:30am 19.7 17.2 6.4 42 6.8 NNE 9 11 5 6 1004.6 1003.4 0.0
22/12:00am 18.7 16.2 6.5 45 6.2 NE 9 11 5 6 1005.1 1003.9 0.0
 
Date/Time
CDT
Temp
°C
App
Temp
°C
Dew
Point
°C
Rel
Hum
%
Delta-T
°C
Wind Press
QNH
hPa
Press
MSL
hPa
Rain since
9am
mm
Dir  Spd
km/h
Gust
km/h
Spd
kts
Gust
kts
21/11:30pm 18.3 15.8 6.5 46 6.0 NE 9 11 5 6 1005.3 1004.1 0.0
21/11:00pm 18.8 16.3 6.6 45 6.2 NE 9 11 5 6 1005.5 1004.3 0.0
21/10:30pm 19.2 16.8 7.0 45 6.3 NE 9 9 5 5 1005.8 1004.6 0.0
21/10:00pm 19.6 17.3 7.4 45 6.3 NE 9 11 5 6 1005.9 1004.7 0.0
21/09:30pm 19.0 18.3 7.1 46 6.1 CALM 0 7 0 4 1005.9 1004.7 0.0
21/09:00pm 19.8 19.0 6.5 42 6.8 CALM 0 0 0 0 1005.9 1004.7 0.0
21/08:30pm 21.7 20.6 5.2 34 8.3 CALM 0 0 0 0 1005.9 1004.7 0.0
21/08:00pm 24.6 23.5 4.9 28 10.0 CALM 0 0 0 0 1006.1 1004.9 0.0
21/07:30pm 26.2 23.2 4.1 24 11.2 NW 9 15 5 8 1006.2 1005.0 0.0
21/07:00pm 26.7 21.9 2.6 21 11.9 W 17 26 9 14 1006.7 1005.4 0.0
21/06:30pm 27.1 22.0 0.8 18 12.7 WNW 17 28 9 15 1006.5 1005.3 0.0
21/06:00pm 27.2 21.3 3.7 22 11.9 W 24 39 13 21 1006.7 1005.4 0.0
21/05:30pm 27.2 21.2 5.5 25 11.4 WNW 26 35 14 19 1006.7 1005.4 0.0
21/05:00pm 27.4 21.8 5.6 25 11.4 WNW 24 41 13 22 1007.0 1005.7 0.0
21/04:30pm 27.2 21.7 6.0 26 11.2 W 24 37 13 20 1007.5 1006.2 0.0
21/04:00pm 25.9 21.5 7.5 31 9.9 W 20 33 11 18 1007.8 1006.6 0.0
21/03:30pm 25.7 21.4 7.8 32 9.7 W 20 32 11 17 1008.1 1006.9 0.0
21/03:00pm 26.5 21.9 5.5 26 11.0 W 19 30 10 16 1008.4 1007.2 0.0
21/02:30pm 26.7 21.7 4.5 24 11.4 WNW 20 32 11 17 1008.8 1007.6 0.0
21/02:00pm 26.7 21.6 3.2 22 11.8 WNW 19 32 10 17 1009.0 1007.8 0.0
21/01:30pm 25.8 21.8 4.9 26 10.7 NW 15 30 8 16 1009.4 1008.2 0.0
21/01:00pm 24.7 21.0 7.8 34 9.1 NNE 17 32 9 17 1010.0 1008.8 0.0
21/12:30pm 23.5 19.8 8.0 37 8.3 NNE 17 30 9 16 1010.7 1009.4 0.0
21/12:00pm 22.1 18.4 7.9 40 7.5 NNE 17 26 9 14 1011.3 1010.1 0.0
21/11:30am 20.9 17.9 9.2 47 6.3 NNE 15 20 8 11 1011.6 1010.4 0.0
21/11:00am 20.6 17.5 10.4 52 5.6 ENE 17 24 9 13 1011.7 1010.5 0.0
21/10:30am 19.7 17.3 10.1 54 5.2 NE 13 22 7 12 1012.0 1010.8 0.0
21/10:00am 18.5 16.4 9.8 57 4.7 NE 11 20 6 11 1012.3 1011.1 0.0
21/09:30am 17.2 16.0 9.4 60 4.1 ENE 6 17 3 9 1012.7 1011.5 0.0
21/09:00am 16.6 14.4 9.5 63 3.8 NE 11 15 6 8 1012.7 1011.5 0.0
21/08:30am 16.2 14.1 9.8 66 3.4 NE 11 17 6 9 1012.7 1011.5 0.0
21/08:00am 14.9 13.3 10.1 73 2.5 NE 9 15 5 8 1012.7 1011.5 0.0
21/07:30am 14.6 13.6 10.4 76 2.2 NE 6 9 3 5 1012.7 1011.5 0.0
21/07:00am 14.3 14.4 10.3 77 2.1 CALM 0 0 0 0 1012.7 1011.5 0.0
21/06:30am 14.1 14.2 10.3 78 2.0 CALM 0 0 0 0 1012.5 1011.3 0.0
21/06:00am 14.0 13.4 10.4 79 1.9 S 4 7 2 4 1012.6 1011.4 0.0
21/05:30am 14.0 12.8 10.4 79 1.9 SSW 7 9 4 5 1012.4 1011.2 0.0
21/05:00am 14.0 12.5 10.4 79 1.9 SSW 9 11 5 6 1012.3 1011.1 0.0
21/04:30am 14.0 12.4 10.2 78 2.0 S 9 11 5 6 1012.2 1011.0 0.0
21/04:00am 14.0 12.8 10.2 78 2.0 SSW 7 11 4 6 1012.3 1011.1 0.0
21/03:30am 13.9 12.3 10.1 78 2.0 SSW 9 13 5 7 1012.4 1011.2 0.0
21/03:00am 14.0 12.4 10.2 78 2.0 SSW 9 15 5 8 1012.2 1011.0 0.0
21/02:30am 14.0 12.4 10.2 78 2.0 SSW 9 13 5 7 1012.3 1011.1 0.0
21/02:00am 14.0 12.4 10.2 78 2.0 SSW 9 13 5 7 1012.4 1011.2 0.0
21/01:30am 14.2 12.2 10.2 77 2.1 SW 11 15 6 8 1012.9 1011.7 0.0
21/01:00am 14.0 12.4 10.2 78 2.0 SW 9 15 5 8 1013.0 1011.8 0.0
21/12:30am 14.3 12.7 10.1 76 2.2 SSW 9 13 5 7 1013.1 1011.9 0.0
21/12:00am 14.5 12.5 10.3 76 2.2 SW 11 17 6 9 1013.4 1012.2 0.0
 
Date/Time
CDT
Temp
°C
App
Temp
°C
Dew
Point
°C
Rel
Hum
%
Delta-T
°C
Wind Press
QNH
hPa
Press
MSL
hPa
Rain since
9am
mm
Dir  Spd
km/h
Gust
km/h
Spd
kts
Gust
kts
20/11:30pm 14.6 12.3 10.4 76 2.2 SSW 13 19 7 10 1013.3 1012.1 0.0
20/11:00pm 14.6 11.9 10.2 75 2.3 SW 15 22 8 12 1013.4 1012.2 0.0
20/10:30pm 14.6 12.7 10.4 76 2.2 SSW 11 17 6 9 1013.5 1012.3 0.0
20/10:00pm 14.2 11.8 10.2 77 2.1 SSW 13 20 7 11 1013.4 1012.2 0.0
20/09:30pm 14.4 12.4 10.2 76 2.2 SW 11 17 6 9 1013.0 1011.8 0.0
20/09:00pm 15.1 12.4 10.3 73 2.6 SW 15 20 8 11 1012.5 1011.3 0.0
20/08:30pm 15.9 12.8 10.4 70 2.9 SW 17 26 9 14 1012.0 1010.8 0.0
20/08:00pm 16.8 13.5 10.9 68 3.2 SW 19 26 10 14 1011.9 1010.7 0.0
20/07:30pm 17.7 14.5 11.3 66 3.5 SW 19 26 10 14 1011.6 1010.4 0.0
20/07:00pm 18.0 14.8 11.3 65 3.7 SW 19 28 10 15 1011.3 1010.1 0.0
20/06:30pm 19.0 16.0 11.8 63 4.0 SW 19 26 10 14 1011.3 1010.1 0.0
20/06:00pm 19.0 16.0 12.0 64 3.9 SW 19 30 10 16 1011.0 1009.8 0.0
20/05:30pm 18.1 14.5 11.9 67 3.5 SW 22 32 12 17 1011.1 1009.9 0.0
20/05:00pm 18.1 14.6 12.1 68 3.4 SW 22 33 12 18 1011.1 1009.9 0.0
20/04:30pm 18.8 15.0 12.3 66 3.7 SSW 24 33 13 18 1011.0 1009.8 0.0
20/04:00pm 19.6 15.9 12.8 65 3.9 SSW 24 35 13 19 1010.9 1009.7 0.0

Other formats

Comma delimited format used in spreadsheet applications
http://www.bom.gov.au/fwo/IDS60801/IDS60801.94681.axf

JavaScript Object Notation format (JSON) in row-major order
http://www.bom.gov.au/fwo/IDS60801/IDS60801.94681.json

Data quality

Most of these data are generated automatically and are frequently updated. Quality checks on data are not normally performed. It is possible for incorrect values to appear. Refer to information at About Latest Weather Observations and please check the disclaimer before using these data.